Home   Weather   Reading   Past weeks
Flag for United Kingdom

Past Weather in Reading, England, United Kingdom — Yesterday and Last 2 Weeks

Now
45 °F

Passing clouds.


Feels Like: 40 °F
Forecast: 52 / 44 °F
Wind: 8 mph from South

Location: Benson

Current Time: Apr 26, 2019 at 5:11:58 am

Latest Report: Apr 26, 2019 at 3:50 am


Visibility: N/A

Pressure: 29.71 "Hg

Humidity: 93%

Dew Point: 43 °F

Location of ReadingLocation

Past Weather in Reading — Graph

°F

Reading Temperature Yesterday

Maximum temperature yesterday: 59 °F (at 11:50 am)
Minimum temperature yesterday: 43 °F (at 10:50 pm)
Average temperature yesterday: 52 °F

High & Low Weather Summary for the Past Weeks

 TemperatureHumidityPressure
High73 °F (Apr 21, 2:50 pm)100% (Apr 17, 12:50 am)30.45 "Hg (Apr 17, 12:50 am)
Low27 °F (Apr 11, 5:50 am)29% (Apr 21, 2:50 pm)29.27 "Hg (Apr 24, 8:50 am)
Average50 °F72%30.01 "Hg
* Reported Apr 11 3:50 am — Apr 26 3:50 am, Reading. Weather by CustomWeather, © 2019

Note: Actual official high and low records may vary slightly from our data, if they occured in-between our weather recording intervals... More about our weather records

Advertising

Reading Weather History for the Previous 24 Hours

Scroll right to see more
 ConditionsComfort  
Time TempWeatherWind HumidityBarometerVisibility
3:50 am
Fri, Apr 26
45 °FPassing clouds.8 mph93%29.71 "HgN/A
2:50 am39 °FClear.8 mph100%29.71 "HgN/A
1:50 am45 °FPassing clouds.7 mph93%29.68 "HgN/A
12:50 am43 °FClear.9 mph93%29.68 "HgN/A
11:50 pm
Thu, Apr 25
43 °FClear.9 mph93%29.68 "HgN/A
10:50 pm43 °FPassing clouds.8 mph87%29.65 "HgN/A
9:50 pm45 °FPassing clouds.6 mph81%29.65 "HgN/A
8:50 pm46 °FPassing clouds.7 mph82%29.62 "HgN/A
7:50 pm52 °FPassing clouds.9 mph67%29.59 "HgN/A
6:50 pm57 °FPassing clouds.12 mph55%29.56 "HgN/A
5:50 pm55 °FScattered clouds.17 mph59%29.53 "HgN/A
4:50 pm59 °FScattered clouds.17 mph51%29.53 "HgN/A
3:50 pm59 °FScattered clouds.20 mph51%29.50 "HgN/A
2:50 pm59 °FScattered clouds.22 mph55%29.47 "HgN/A
1:50 pm59 °FScattered clouds.20 mph55%29.45 "HgN/A
12:50 pm57 °FScattered clouds.20 mph67%29.45 "HgN/A
11:50 am59 °FPartly sunny.18 mph59%29.45 "HgN/A
10:50 am55 °FBroken clouds.17 mph67%29.42 "HgN/A
9:50 am54 °FBroken clouds.13 mph82%29.42 "HgN/A
8:50 am52 °FPartly sunny.15 mph82%29.42 "HgN/A
7:50 am52 °FBroken clouds.12 mph88%29.39 "HgN/A
6:50 am50 °FPartly sunny.12 mph88%29.36 "HgN/A
5:50 am50 °FBroken clouds.14 mph88%29.36 "HgN/A
Weather by CustomWeather, © 2019

See weather overview